Submittal Forms
Current Contests
Recent Contests

Club Activity Tracker - Bay Area DXers (from club selection on form)

Recent postings for the selected club or group are listed below. Other than the call used, all calls listed are only those associated with the club or group. Click on a call to see the details of the posting.
Status Key: new=new posting, update=update prior posting, move=change club/group, delete=delete prior posting.

Sort by   for past

TimestampCallContestClassPowerScoreStatus
2020-05-28 04:30:54WA8YCWopsTSingle OpHP7,052new5615
2020-05-27 19:35:30K8BZCWopsTSingle OpHP3,782new5614
2020-05-27 14:45:46WA8YCWopsTSingle OpHP8,928new5613
2020-05-27 13:42:59K8BZCWopsTSingle OpHP10,000new5613
2020-05-21 15:10:15WA8YCWopsTSingle OpHP3,422new5594
2020-05-20 21:46:56WA8YCWopsTSingle OpHP5,476new5593
2020-05-20 14:00:32K8BZCWopsTSingle OpHP19,881new5592
2020-05-17 15:16:31K8LXKing of Spain CWSOSB/20HP14,720new5583
2020-05-17 01:35:18WA8YHamventionSingle OpHP431new5569
2020-05-14 05:10:13WA8YCWopsTSingle OpHP6,241new5575
 
2020-05-14 04:31:58WA8YCWopsTSingle OpHP7,656new5576
2020-05-13 15:23:01WA8YCWopsTSingle OpHP11,025new5574
2020-05-13 14:02:55K8BZCWopsTSingle OpHP18,225new5574
2020-05-12 02:16:00W8JJWWSACSOAB-OMHP342new5568
2020-05-11 14:05:51K8GLCQ-MSOSB/20CWHP69,052new5564
2020-05-10 22:08:23K8LXCQ-MSOSB/20CWHP32,000new5564
2020-05-10 14:51:41K8RCTVolta RTTYSOABHP34,003,683new5563
2020-05-06 20:56:33WA8YCWopsTSingle OpHP9,216new5558
2020-05-06 19:56:59K8BZCWopsTSingle OpHP12,321new5558
2020-05-06 17:21:33WA8YCWopsTSingle OpHP8,464new5557
 
2020-05-06 14:01:05K8BZCWopsTSingle OpHP13,924new5557
2020-05-03 18:26:07K8LX7QPSOMixedHP26,197new5544
2020-05-03 18:14:49K8LXARISO MixedHP20,253new5543
2020-05-03 18:10:15K8GLARISO CWHP241,080new5543
2020-05-03 18:08:22K8LXNewEngQPSingle OpHP50new5547
2020-04-29 15:45:43NA8VMiQPSingle OpHP277,552new5490
2020-04-29 15:09:42WA8YCWopsTSingle OpHP11,449new5535
2020-04-29 14:02:12K8BZCWopsTSingle OpHP5,041new5535
2020-04-28 01:03:58K8GLHelvetiaSO CWHP31,262new